| time (UTC) | temp C | wind direction | speed KPH | gust KPH | rain 1hr cm | rain 24hr cm | rain mn cm | humidity % | barometer mb |
| 20260503054525 | 17 | 12 | 0.0 | 0.0 | 0.00 | 0.00 | 0.00 | 32 | 996.2 |
| 20260503053025 | 18 | 12 | 0.0 | 0.0 | 0.00 | 0.00 | 0.00 | 30 | 996.1 |
| 20260503051521 | 18 | 12 | 0.0 | 0.0 | 0.00 | 0.00 | 0.00 | 30 | 996.0 |
| 20260503050022 | 18 | 9 | 0.0 | 0.0 | 0.00 | 0.00 | 0.00 | 29 | 995.9 |
| 20260503044519 | 18 | 5 | 0.0 | 0.0 | 0.00 | 0.00 | 0.00 | 30 | 996.0 |
| 20260503043034 | 17 | 5 | 0.0 | 0.0 | 0.00 | 0.00 | 0.00 | 32 | 995.9 |
| 20260503041521 | 17 | 5 | 0.0 | 0.0 | 0.00 | 0.00 | 0.00 | 33 | 995.9 |
| 20260503040019 | 17 | 355 | 0.0 | 0.0 | 0.00 | 0.00 | 0.00 | 31 | 995.8 |
| 20260503034519 | 18 | 351 | 0.0 | 0.0 | 0.00 | 0.00 | 0.00 | 27 | 995.8 |
| 20260503033023 | 18 | 23 | 0.0 | 0.0 | 0.00 | 0.00 | 0.00 | 22 | 995.8 |
| 20260503031517 | 18 | 23 | 0.0 | 0.0 | 0.00 | 0.00 | 0.00 | 23 | 995.6 |
| 20260503030016 | 18 | 53 | 0.0 | 0.0 | 0.00 | 0.00 | 0.00 | 23 | 995.5 |
| 20260503024524 | 19 | 113 | 0.0 | 0.0 | 0.00 | 0.00 | 0.00 | 22 | 995.6 |
| 20260503023015 | 20 | 113 | 0.0 | 0.0 | 0.00 | 0.00 | 0.00 | 21 | 995.4 |
| 20260503021536 | 20 | 117 | 0.0 | 0.0 | 0.00 | 0.00 | 0.00 | 21 | 995.5 |
| 20260503020014 | 20 | 165 | 0.0 | 0.0 | 0.00 | 0.00 | 0.00 | 22 | 995.5 |
| 20260503014514 | 20 | 165 | 0.0 | 0.0 | 0.00 | 0.00 | 0.00 | 22 | 995.4 |
| 20260503013013 | 20 | 165 | 0.0 | 0.0 | 0.00 | 0.00 | 0.00 | 20 | 995.4 |
| 20260503011513 | 20 | 165 | 0.0 | 0.0 | 0.00 | 0.00 | 0.00 | 21 | 995.4 |
| 20260503010009 | 20 | 167 | 0.0 | 0.0 | 0.00 | 0.00 | 0.00 | 20 | 995.6 |
| 20260503004508 | 20 | 168 | 0.0 | 0.0 | 0.00 | 0.00 | 0.00 | 22 | 995.7 |
| 20260503003012 | 20 | 165 | 0.0 | 0.0 | 0.00 | 0.00 | 0.00 | 23 | 995.6 |
| 20260503001506 | 20 | 163 | 0.0 | 0.0 | 0.00 | 0.00 | 0.00 | 24 | 995.7 |
| 20260503000007 | 19 | 161 | 0.0 | 0.0 | 0.00 | 0.00 | 0.00 | 26 | 995.7 |
| 20260502234503 | 19 | 156 | 0.0 | 0.0 | 0.00 | 0.00 | 0.00 | 27 | 995.8 |
| 20260502233003 | 20 | 161 | 0.0 | 0.0 | 0.00 | 0.00 | 0.00 | 30 | 996.0 |
| 20260502231502 | 20 | 153 | 0.0 | 0.0 | 0.00 | 0.00 | 0.00 | 29 | 996.1 |
| 20260502230058 | 19 | 171 | 0.0 | 0.0 | 0.00 | 0.00 | 0.00 | 30 | 996.2 |
| 20260502224557 | 20 | 148 | 0.0 | 0.0 | 0.00 | 0.00 | 0.00 | 28 | 996.5 |
| 20260502223054 | 19 | 153 | 0.0 | 0.0 | 0.00 | 0.00 | 0.00 | 30 | 996.6 |
| 20260502221552 | 19 | 136 | 0.0 | 0.0 | 0.00 | 0.00 | 0.00 | 31 | 996.9 |
| 20260502220051 | 19 | 140 | 0.0 | 0.0 | 0.00 | 0.00 | 0.00 | 33 | 997.1 |
| 20260502214550 | 18 | 123 | 0.0 | 0.0 | 0.00 | 0.00 | 0.00 | 34 | 997.2 |
| 20260502213102 | 18 | 111 | 0.0 | 0.0 | 0.00 | 0.00 | 0.00 | 34 | 997.3 |
| 20260502211547 | 18 | 169 | 0.0 | 0.0 | 0.00 | 0.00 | 0.00 | 32 | 997.5 |
| 20260502210044 | 18 | 119 | 0.0 | 0.0 | 0.00 | 0.00 | 0.00 | 33 | 997.6 |
| 20260502204545 | 18 | 144 | 0.0 | 0.0 | 0.00 | 0.00 | 0.00 | 32 | 997.8 |
| 20260502203042 | 17 | 155 | 0.0 | 0.0 | 0.00 | 0.00 | 0.00 | 31 | 997.9 |
| 20260502201539 | 17 | 136 | 0.0 | 0.0 | 0.00 | 0.00 | 0.00 | 36 | 997.9 |
| 20260502200058 | 17 | 134 | 0.0 | 0.0 | 0.00 | 0.00 | 0.00 | 36 | 998.1 |
| 20260502194547 | 17 | 150 | 0.0 | 0.0 | 0.00 | 0.00 | 0.00 | 35 | 998.2 |
| 20260502193035 | 17 | 152 | 0.0 | 0.0 | 0.00 | 0.00 | 0.00 | 34 | 998.4 |
| 20260502191534 | 17 | 111 | 0.0 | 0.0 | 0.00 | 0.00 | 0.00 | 35 | 998.5 |
| 20260502190033 | 17 | 148 | 0.0 | 0.0 | 0.00 | 0.00 | 0.00 | 37 | 998.7 |
| 20260502184531 | 17 | 82 | 0.0 | 0.0 | 0.00 | 0.00 | 0.00 | 33 | 998.8 |
| 20260502183036 | 16 | 94 | 0.0 | 0.0 | 0.00 | 0.00 | 0.00 | 33 | 998.9 |
| 20260502181529 | 16 | 162 | 0.0 | 0.0 | 0.00 | 0.00 | 0.00 | 35 | 998.9 |
| 20260502163020 | 15 | 83 | 0.0 | 0.0 | 0.00 | 0.00 | 0.00 | 48 | 998.9 |
| 20260502161518 | 15 | 84 | 0.0 | 0.0 | 0.00 | 0.00 | 0.00 | 47 | 998.9 |
| 20260502151513 | 13 | 65 | 0.0 | 0.0 | 0.00 | 0.00 | 0.00 | 42 | 999.2 |
| 20260502114538 | 12 | 72 | 0.0 | 0.0 | 0.00 | 0.00 | 0.00 | 44 | 998.9 |
| 20260502113038 | 12 | 74 | 0.0 | 0.0 | 0.00 | 0.00 | 0.00 | 43 | 998.8 |
| 20260502111534 | 12 | 78 | 0.0 | 0.0 | 0.00 | 0.00 | 0.00 | 43 | 998.8 |
| 20260502110035 | 12 | 84 | 0.0 | 0.0 | 0.00 | 0.00 | 0.00 | 44 | 998.9 |
| 20260502104532 | 11 | 90 | 0.0 | 0.0 | 0.00 | 0.00 | 0.00 | 44 | 998.9 |
| 20260502103057 | 11 | 72 | 0.0 | 0.0 | 0.00 | 0.00 | 0.00 | 45 | 998.8 |
| 20260502101545 | 12 | 72 | 0.0 | 0.0 | 0.00 | 0.00 | 0.00 | 42 | 999.0 |
| 20260502091523 | 14 | 46 | 0.0 | 0.0 | 0.00 | 0.00 | 0.00 | 33 | 998.9 |
| 20260502071517 | 14 | 62 | 0.0 | 0.0 | 0.00 | 0.00 | 0.00 | 35 | 999.5 |